Location: ??????????
(48.4699°N, 37.9573°E)
Time: 13:25:23
(UTC+00:00)

X-37B - Pass Details

Date: 20 January 2021
Orbit: 383 x 391 km, 45.0° (Epoch: 10 February)

Event Time Altitude Azimuth Distance (km) Brightness Sun altitude
Rises 15:58:20 0° 225° (SW) 2,267 5.4 -17.9°
Reaches altitude 10° 16:00:41 10° 210° (SSW) 1,416 3.9 -18.3°
Enters shadow 16:03:00 22° 163° (SSE) 923 2.4 -18.7°
